Total_Precipitation_Accumulation
2.02 2.46 2.59 2.69 3.09 3.41 3.60 3.50 3.69 4.08 4.37 4.76 4.79 5.04 5.52 5.85 5.95 5.99 5.96 5.86 5.79 5.83 5.70 5.53 5.67 5.50 5.24 5.03 5.00 4.97 4.83 4.47 4.43 4.44 3.94 3.22 2.77 2.55 2.36 2.39 2.47 2.30 2.28
1.86 2.32 2.53 2.91 3.26 3.39 3.63 3.73 3.86 4.36 4.84 5.40 5.94 6.35 6.81 6.85 6.97 6.87 6.72 6.36 6.19 6.12 5.92 5.97 5.79 5.61 5.50 5.22 5.01 4.96 4.85 4.48 4.53 4.54 4.50 3.70 3.12 2.46 1.92 2.05 2.11 2.08 2.16
1.92 2.21 2.52 2.92 3.27 3.45 3.68 3.82 4.14 4.75 5.58 6.17 6.68 7.23 7.59 7.33 7.11 6.77 6.61 6.49 6.43 6.36 6.25 6.26 5.98 5.77 5.53 5.18 4.89 4.77 4.69 4.56 4.56 4.42 4.53 3.95 3.24 2.68 2.15 1.87 1.78 1.88 2.07
1.90 2.18 2.48 2.80 3.12 3.48 3.61 3.81 4.45 5.12 5.75 6.40 7.04 7.58 7.83 7.83 7.63 7.05 6.55 6.18 5.95 5.71 5.64 5.70 5.58 5.40 5.09 4.85 4.52 4.41 4.37 4.53 4.35 4.29 4.07 3.76 3.41 3.19 2.72 2.24 1.96 1.92 1.94
1.89 2.09 2.35 2.60 2.78 3.16 3.55 3.85 4.52 5.26 5.90 6.67 7.40 7.79 7.96 7.93 7.55 6.78 6.01 5.50 5.19 4.92 4.73 4.78 4.70 4.54 4.35 4.19 4.14 4.19 4.10 4.04 3.87 3.76 3.80 3.85 3.75 3.34 2.97 2.59 2.28 2.15 2.02
1.79 1.85 2.12 2.29 2.56 2.91 3.35 3.85 4.22 4.88 5.69 6.29 6.80 6.95 7.08 7.02 6.59 6.15 5.66 5.31 4.83 4.37 4.02 3.92 3.86 3.67 3.50 3.52 3.56 3.67 3.63 3.67 3.67 3.59 3.46 3.46 3.46 3.23 3.13 2.79 2.46 2.39 2.17
1.72 1.95 2.22 2.19 2.47 2.80 3.23 3.72 4.14 4.58 5.17 5.74 6.17 6.36 6.51 6.43 5.93 5.48 5.04 4.63 4.12 3.73 3.44 3.26 3.21 3.10 3.04 3.05 3.22 3.34 3.28 3.24 3.30 3.26 3.17 3.12 3.05 3.02 3.03 3.11 2.82 2.47 2.14
1.78 1.86 1.99 2.10 2.42 2.69 2.98 3.40 3.75 4.15 4.40 4.68 5.14 5.39 5.56 5.41 5.05 4.57 4.07 3.74 3.42 3.08 2.92 2.82 2.76 2.67 2.59 2.55 2.77 2.89 2.95 2.96 3.02 2.97 3.09 3.04 2.92 2.93 2.89 2.96 3.07 2.88 2.51
1.71 1.83 1.96 2.10 2.32 2.67 3.14 3.36 3.37 3.57 3.81 4.09 4.29 4.37 4.46 4.34 4.10 3.79 3.46 3.14 2.84 2.55 2.42 2.38 2.40 2.37 2.33 2.38 2.58 2.63 2.58 2.64 2.66 2.73 2.86 2.83 2.79 2.85 2.81 2.90 3.09 3.22 2.99
1.68 1.79 1.92 2.14 2.22 2.26 2.65 3.02 3.09 3.17 3.24 3.39 3.48 3.41 3.53 3.44 3.38 3.19 2.93 2.67 2.49 2.25 2.18 2.14 2.15 2.18 2.14 2.16 2.29 2.39 2.44 2.43 2.39 2.49 2.68 2.70 2.66 2.83 2.92 3.00 3.05 3.11 3.12
1.88 1.86 1.85 1.91 2.08 2.15 2.29 2.55 2.81 2.86 2.89 3.06 3.08 2.98 3.08 3.06 3.07 2.93 2.71 2.58 2.53 2.40 2.22 2.12 2.17 2.18 2.11 2.08 2.10 2.03 2.12 2.22 2.26 2.30 2.41 2.51 2.61 2.76 2.81 2.90 2.92 2.99 3.05
1.76 1.73 1.67 1.66 1.76 1.98 2.23 2.40 2.52 2.52 2.60 2.74 2.87 2.93 2.97 2.89 2.79 2.60 2.48 2.38 2.26 2.11 2.07 2.06 2.11 2.10 2.02 2.01 1.94 1.81 1.88 1.99 2.06 2.12 2.21 2.27 2.36 2.47 2.42 2.53 2.56 2.62 2.74
1.87 1.75 1.67 1.68 1.71 1.82 1.96 2.16 2.39 2.46 2.46 2.48 2.51 2.65 2.67 2.55 2.43 2.36 2.33 2.25 2.11 2.04 2.06 2.08 2.08 2.09 2.05 2.03 1.97 1.93 1.88 1.79 1.80 1.89 1.94 1.99 2.09 2.07 2.01 2.05 2.05 2.16 2.29
2.04 1.83 1.78 1.76 1.73 1.80 1.84 1.90 2.06 2.24 2.36 2.43 2.57 2.61 2.53 2.41 2.32 2.16 2.00 1.91 1.84 1.89 1.98 1.95 1.91 1.89 1.83 1.74 1.78 1.84 1.82 1.72 1.68 1.68 1.69 1.67 1.62 1.62 1.68 1.71 1.78 1.94 2.25
1.91 1.82 1.83 1.89 1.86 1.78 1.78 1.80 1.98 2.05 2.25 2.38 2.37 2.30 2.23 2.19 2.18 2.11 1.96 1.81 1.69 1.62 1.74 1.73 1.72 1.68 1.57 1.46 1.50 1.58 1.58 1.63 1.60 1.57 1.54 1.46 1.43 1.48 1.46 1.38 1.54 1.82 2.13
1.81 1.79 1.77 1.86 1.77 1.69 1.64 1.64 1.82 1.88 1.98 2.10 2.11 2.03 2.01 2.11 2.09 2.01 1.87 1.77 1.68 1.61 1.63 1.62 1.56 1.46 1.25 1.28 1.31 1.30 1.36 1.47 1.53 1.52 1.43 1.34 1.33 1.32 1.28 1.26 1.36 1.53 1.72
1.95 2.01 2.06 2.06 1.90 1.74 1.67 1.75 1.85 1.90 1.92 1.95 1.91 1.93 1.92 1.91 1.90 1.75 1.66 1.68 1.73 1.62 1.54 1.46 1.38 1.27 1.20 1.19 1.15 1.19 1.26 1.37 1.44 1.48 1.50 1.31 1.14 1.25 1.25 1.28 1.31 1.32 1.40
2.30 2.32 2.32 2.12 1.94 1.83 1.78 1.83 1.83 1.87 1.97 1.91 1.79 1.75 1.76 1.71 1.69 1.69 1.67 1.66 1.66 1.60 1.52 1.41 1.32 1.26 1.13 1.11 1.08 1.10 1.16 1.32 1.37 1.37 1.39 1.43 1.38 1.31 1.33 1.31 1.30 1.26 1.29
2.31 2.23 2.17 2.05 1.88 1.78 1.75 1.74 1.77 1.73 1.74 1.66 1.61 1.54 1.53 1.59 1.62 1.59 1.68 1.67 1.59 1.54 1.44 1.36 1.35 1.32 1.17 1.09 1.04 1.10 1.19 1.30 1.28 1.20 1.20 1.19 1.19 1.23 1.32 1.39 1.45 1.42 1.36
1.86 1.92 1.96 1.91 1.75 1.63 1.59 1.64 1.68 1.65 1.59 1.56 1.55 1.47 1.46 1.49 1.53 1.55 1.60 1.55 1.53 1.50 1.38 1.31 1.34 1.34 1.27 1.10 0.98 1.05 1.10 1.13 1.14 1.17 1.14 1.08 1.01 1.01 1.05 1.12 1.35 1.49 1.40
1.59 1.61 1.79 1.85 1.68 1.48 1.45 1.55 1.56 1.55 1.42 1.41 1.50 1.52 1.50 1.49 1.49 1.51 1.54 1.51 1.48 1.52 1.51 1.46 1.45 1.43 1.32 1.17 1.02 1.00 0.99 1.00 1.04 1.09 1.09 1.05 0.95 0.83 0.85 0.98 1.17 1.29 1.31
1.50 1.49 1.63 1.61 1.47 1.37 1.46 1.54 1.52 1.42 1.36 1.41 1.56 1.58 1.58 1.45 1.42 1.58 1.61 1.54 1.51 1.47 1.54 1.55 1.52 1.47 1.40 1.21 1.07 0.99 0.94 0.96 0.99 1.06 1.07 1.02 0.94 0.83 0.85 0.93 1.05 1.14 1.29
1.46 1.43 1.52 1.51 1.39 1.36 1.44 1.51 1.46 1.38 1.43 1.52 1.58 1.63 1.57 1.55 1.54 1.60 1.61 1.54 1.51 1.43 1.40 1.41 1.41 1.36 1.26 1.15 1.03 0.97 0.92 0.92 0.92 0.94 0.97 0.96 0.95 0.96 1.01 1.05 1.08 1.18 1.38
1.38 1.42 1.49 1.45 1.36 1.27 1.29 1.35 1.26 1.26 1.43 1.60 1.57 1.58 1.60 1.59 1.57 1.53 1.46 1.41 1.38 1.32 1.28 1.26 1.26 1.16 1.10 1.00 0.88 0.85 0.84 0.87 0.91 0.92 1.00 1.08 1.13 1.14 1.13 1.17 1.26 1.32 1.42
1.30 1.33 1.42 1.42 1.28 1.20 1.18 1.19 1.23 1.31 1.46 1.50 1.48 1.47 1.50 1.51 1.50 1.38 1.28 1.28 1.21 1.09 1.03 1.01 1.00 0.97 0.94 0.91 0.89 0.84 0.83 0.81 0.83 0.91 1.05 1.22 1.30 1.31 1.26 1.23 1.26 1.30 1.33
1.29 1.33 1.30 1.26 1.17 1.06 1.04 1.08 1.15 1.21 1.34 1.33 1.30 1.30 1.37 1.40 1.34 1.31 1.20 1.10 1.01 1.02 0.97 0.91 0.92 0.91 0.93 0.86 0.75 0.75 0.77 0.81 0.93 0.99 1.19 1.33 1.37 1.38 1.25 1.20 1.17 1.16 1.17